Temp
-9 -9 -10 -10 -10 -10 -10 -10 -10 -10 -10 -11 -11 -11 -11 -11 -11 -10 -10 -10 -10 -10 -10 -10 -10 -10 -10 -10 -10 -10 -10 -10 -10 -10 -10 -10 -10 -10 -10 -9 -9 -9 -9 -9 -9 -9 -9 -9 -9 -9 -9 -9 -9 -8 -8 -8 -8 -8 -8 -7 -7 -7 -7 -7 -7 -7 -6 -6 -6
-9 -9 -10 -10 -10 -10 -10 -11 -11 -11 -11 -11 -11 -11 -11 -11 -11 -11 -10 -10 -10 -10 -10 -10 -10 -10 -10 -10 -10 -10 -10 -10 -10 -10 -10 -10 -10 -10 -10 -10 -10 -10 -10 -9 -9 -9 -9 -9 -9 -9 -9 -9 -9 -8 -8 -8 -8 -8 -8 -7 -7 -7 -7 -7 -7 -6 -6 -6 -6
-9 -9 -10 -10 -10 -10 -10 -11 -11 -11 -11 -11 -11 -11 -11 -11 -11 -11 -10 -10 -10 -10 -10 -10 -10 -10 -10 -10 -10 -10 -10 -10 -10 -10 -10 -10 -10 -10 -10 -10 -10 -10 -10 -10 -9 -9 -9 -9 -9 -9 -9 -9 -9 -9 -8 -8 -8 -8 -8 -7 -7 -7 -7 -7 -7 -6 -6 -6 -6
-9 -10 -10 -10 -10 -10 -10 -10 -11 -11 -11 -11 -11 -11 -11 -11 -11 -10 -10 -10 -10 -10 -10 -10 -10 -10 -10 -10 -10 -10 -10 -10 -10 -10 -10 -10 -10 -10 -10 -10 -10 -10 -10 -10 -9 -9 -9 -9 -9 -9 -9 -9 -9 -9 -9 -9 -8 -8 -8 -8 -7 -7 -7 -7 -7 -7 -7 -6 -6
-10 -10 -10 -10 -10 -10 -10 -10 -10 -10 -11 -11 -11 -11 -11 -11 -10 -10 -10 -10 -10 -10 -10 -10 -10 -10 -10 -10 -10 -10 -10 -10 -10 -10 -10 -10 -10 -10 -10 -10 -10 -10 -10 -10 -9 -9 -9 -9 -9 -9 -9 -9 -9 -9 -9 -9 -9 -8 -8 -8 -8 -8 -8 -7 -7 -7 -7 -7 -6
-10 -10 -10 -10 -10 -10 -10 -10 -10 -10 -10 -11 -11 -10 -10 -10 -10 -10 -10 -10 -10 -10 -10 -10 -10 -10 -10 -10 -10 -10 -10 -10 -10 -10 -10 -10 -10 -10 -10 -10 -10 -10 -10 -10 -9 -9 -9 -9 -9 -9 -9 -9 -9 -9 -9 -9 -9 -9 -9 -9 -8 -8 -8 -8 -8 -7 -7 -7 -7
-10 -10 -10 -10 -10 -10 -10 -10 -10 -10 -10 -10 -10 -10 -10 -10 -10 -10 -10 -10 -10 -10 -10 -10 -10 -10 -10 -10 -10 -10 -10 -10 -10 -10 -10 -10 -10 -10 -10 -10 -10 -10 -10 -9 -9 -9 -9 -9 -9 -9 -9 -9 -9 -9 -9 -9 -9 -9 -9 -9 -9 -9 -8 -8 -8 -8 -7 -7 -7
-10 -10 -10 -10 -10 -10 -10 -10 -10 -10 -10 -10 -10 -10 -10 -10 -10 -10 -10 -10 -10 -10 -10 -10 -10 -10 -10 -10 -10 -10 -10 -10 -10 -10 -10 -10 -10 -10 -10 -10 -9 -9 -9 -9 -9 -9 -9 -10 -10 -10 -10 -10 -9 -9 -9 -9 -9 -9 -9 -9 -9 -9 -9 -8 -8 -8 -7 -7 -7
-10 -10 -10 -10 -10 -10 -10 -10 -10 -10 -10 -10 -10 -10 -10 -10 -10 -10 -10 -10 -10 -10 -10 -10 -10 -10 -10 -9 -9 -9 -9 -9 -9 -9 -9 -10 -10 -9 -9 -9 -9 -9 -9 -9 -9 -9 -10 -10 -10 -10 -10 -10 -10 -10 -10 -10 -9 -9 -9 -9 -9 -9 -9 -8 -8 -8 -8 -7 -7
-10 -10 -10 -10 -10 -11 -10 -10 -10 -10 -10 -10 -10 -10 -10 -10 -10 -10 -10 -10 -10 -10 -10 -10 -10 -9 -9 -9 -9 -9 -9 -9 -9 -9 -9 -9 -9 -9 -9 -9 -9 -9 -9 -9 -9 -10 -10 -10 -10 -10 -10 -10 -10 -10 -10 -10 -9 -9 -9 -9 -9 -9 -9 -8 -8 -8 -8 -7 -7
-11 -10 -10 -10 -11 -11 -10 -10 -10 -10 -10 -10 -10 -10 -10 -10 -10 -10 -10 -10 -10 -10 -9 -9 -9 -9 -9 -9 -9 -9 -9 -9 -9 -9 -9 -9 -9 -9 -9 -9 -9 -9 -9 -9 -10 -10 -10 -10 -10 -10 -10 -10 -10 -10 -10 -10 -9 -9 -9 -9 -9 -9 -9 -8 -8 -8 -7 -7 -7
-11 -11 -11 -11 -11 -11 -10 -10 -10 -10 -10 -10 -10 -10 -10 -10 -10 -10 -10 -10 -9 -9 -9 -9 -9 -9 -9 -9 -9 -9 -9 -9 -9 -9 -9 -9 -9 -9 -9 -9 -9 -9 -9 -10 -10 -10 -10 -10 -10 -10 -10 -10 -10 -10 -10 -9 -9 -9 -9 -9 -9 -9 -8 -8 -8 -7 -7 -7 -6
-11 -11 -11 -11 -11 -11 -10 -10 -10 -10 -10 -10 -10 -10 -10 -10 -10 -10 -9 -9 -9 -9 -9 -9 -9 -9 -9 -9 -9 -9 -9 -9 -9 -9 -9 -9 -9 -9 -9 -9 -9 -9 -10 -10 -10 -10 -10 -10 -10 -10 -10 -10 -10 -10 -10 -9 -9 -9 -9 -9 -9 -8 -8 -8 -7 -7 -7 -6 -6
-11 -11 -11 -11 -11 -11 -10 -10 -10 -10 -10 -10 -10 -10 -10 -10 -10 -9 -9 -9 -9 -9 -9 -9 -9 -9 -9 -9 -9 -9 -9 -9 -9 -9 -9 -9 -9 -9 -9 -9 -9 -9 -10 -10 -10 -10 -10 -10 -10 -10 -10 -10 -10 -10 -9 -9 -9 -9 -9 -9 -8 -8 -8 -7 -7 -7 -6 -6 -5
-10 -10 -10 -10 -10 -10 -10 -10 -10 -10 -10 -10 -10 -10 -10 -10 -9 -9 -9 -9 -9 -9 -9 -9 -9 -9 -9 -9 -9 -9 -9 -9 -9 -9 -9 -9 -9 -9 -9 -9 -9 -9 -9 -10 -10 -10 -10 -10 -10 -10 -10 -10 -9 -9 -9 -9 -9 -9 -8 -8 -8 -8 -7 -7 -7 -6 -6 -5 -5
-10 -10 -10 -10 -10 -10 -10 -10 -10 -10 -10 -10 -10 -10 -10 -9 -9 -9 -9 -9 -9 -9 -9 -9 -9 -9 -9 -9 -9 -9 -9 -9 -9 -9 -9 -9 -9 -9 -9 -9 -9 -9 -9 -9 -9 -10 -9 -9 -9 -9 -9 -9 -9 -9 -9 -8 -8 -8 -8 -8 -8 -7 -7 -7 -6 -6 -5 -5 -5
-10 -10 -10 -10 -10 -10 -10 -10 -10 -10 -10 -10 -10 -10 -10 -10 -9 -9 -9 -9 -9 -9 -9 -9 -9 -9 -9 -9 -9 -9 -9 -9 -9 -9 -9 -9 -9 -9 -9 -9 -9 -9 -9 -9 -9 -9 -9 -9 -9 -9 -9 -9 -9 -8 -8 -8 -8 -8 -8 -7 -7 -7 -6 -6 -6 -5 -5 -5 -5
-10 -10 -10 -10 -10 -10 -10 -10 -10 -10 -10 -10 -10 -9 -9 -9 -9 -9 -9 -9 -9 -9 -9 -9 -9 -9 -9 -9 -9 -9 -9 -9 -9 -9 -9 -9 -9 -9 -9 -9 -9 -9 -9 -9 -9 -9 -9 -9 -9 -8 -8 -8 -8 -8 -8 -8 -8 -8 -7 -7 -7 -6 -6 -5 -5 -5 -5 -5 -4
-10 -10 -10 -10 -10 -10 -10 -10 -10 -10 -10 -10 -9 -9 -9 -9 -9 -9 -9 -9 -9 -9 -9 -9 -9 -9 -9 -9 -9 -9 -9 -9 -9 -9 -9 -9 -9 -9 -9 -9 -9 -9 -9 -9 -9 -9 -9 -9 -8 -8 -8 -8 -8 -8 -7 -7 -7 -7 -7 -6 -6 -6 -5 -5 -5 -5 -4 -4 -4
-10 -10 -10 -10 -10 -10 -10 -10 -10 -10 -10 -9 -9 -9 -9 -9 -9 -9 -9 -9 -9 -9 -9 -9 -9 -9 -9 -9 -9 -9 -9 -9 -9 -9 -9 -9 -9 -9 -9 -9 -9 -9 -9 -8 -8 -8 -8 -8 -8 -8 -7 -7 -7 -7 -7 -6 -6 -6 -6 -6 -5 -5 -5 -5 -5 -4 -4 -4 -4
-10 -10 -10 -10 -10 -10 -10 -10 -10 -10 -9 -9 -9 -9 -9 -9 -9 -9 -9 -9 -9 -9 -9 -9 -9 -9 -9 -9 -9 -9 -9 -9 -9 -9 -9 -9 -9 -9 -9 -9 -9 -9 -8 -8 -8 -8 -8 -7 -7 -7 -7 -6 -6 -6 -6 -6 -6 -6 -5 -5 -5 -5 -5 -4 -4 -4 -4 -4 -4
-10 -10 -10 -10 -10 -10 -10 -10 -10 -9 -9 -9 -9 -9 -9 -9 -9 -9 -9 -9 -9 -9 -9 -9 -9 -9 -9 -9 -9 -9 -9 -9 -8 -9 -9 -9 -9 -9 -9 -9 -8 -8 -8 -8 -7 -7 -6 -6 -6 -6 -6 -6 -6 -6 -6 -6 -6 -6 -5 -5 -5 -4 -4 -4 -4 -4 -4 -4 -4
-9 -9 -10 -10 -10 -10 -10 -10 -9 -9 -9 -9 -9 -9 -8 -8 -8 -8 -9 -9 -9 -9 -9 -9 -9 -9 -9 -9 -9 -9 -8 -8 -8 -8 -8 -8 -9 -9 -9 -8 -8 -8 -7 -6 -6 -5 -5 -6 -6 -6 -6 -6 -6 -6 -6 -6 -6 -6 -6 -5 -5 -4 -4 -4 -4 -4 -4 -4 -4
-9 -9 -9 -10 -10 -9 -9 -9 -9 -9 -9 -9 -9 -8 -8 -8 -8 -8 -9 -9 -9 -9 -9 -9 -9 -9 -9 -9 -9 -8 -8 -8 -8 -8 -8 -8 -8 -8 -8 -8 -7 -7 -6 -5 -4 -4 -5 -6 -6 -6 -6 -6 -6 -6 -6 -6 -6 -6 -6 -5 -5 -4 -4 -4 -4 -4 -4 -4 -4
-9 -9 -9 -10 -9 -9 -9 -9 -9 -9 -9 -9 -8 -8 -8 -8 -8 -9 -9 -9 -9 -9 -9 -9 -9 -9 -9 -9 -8 -8 -8 -8 -8 -8 -8 -8 -8 -8 -8 -7 -7 -6 -5 -4 -4 -4 -4 -5 -5 -6 -6 -6 -6 -6 -6 -6 -6 -6 -6 -6 -5 -5 -5 -4 -4 -4 -4 -4 -4
-9 -9 -9 -9 -9 -9 -9 -9 -9 -9 -9 -8 -8 -8 -8 -8 -8 -9 -9 -9 -9 -9 -9 -9 -9 -9 -9 -9 -8 -8 -8 -8 -8 -8 -8 -8 -8 -8 -8 -8 -7 -6 -5 -4 -4 -4 -4 -4 -5 -6 -6 -7 -7 -7 -7 -7 -7 -7 -6 -6 -6 -6 -5 -5 -4 -4 -4 -4 -4
-9 -9 -9 -9 -9 -9 -9 -9 -9 -9 -8 -8 -8 -8 -8 -8 -8 -8 -9 -9 -9 -9 -9 -9 -9 -9 -9 -9 -8 -8 -8 -8 -8 -8 -8 -8 -8 -8 -8 -8 -7 -6 -4 -4 -4 -4 -4 -4 -5 -5 -6 -7 -7 -7 -7 -7 -7 -7 -7 -7 -7 -6 -6 -5 -5 -4 -4 -4 -4
-9 -9 -9 -9 -9 -9 -9 -9 -9 -8 -8 -8 -8 -8 -8 -8 -8 -8 -9 -9 -9 -9 -9 -9 -9 -9 -9 -9 -8 -8 -8 -8 -8 -8 -8 -8 -8 -8 -8 -8 -7 -6 -4 -4 -4 -4 -4 -5 -5 -5 -6 -7 -7 -7 -7 -7 -7 -7 -7 -7 -7 -7 -6 -6 -5 -4 -4 -4 -4
-9 -9 -9 -9 -9 -9 -8 -8 -8 -8 -8 -8 -8 -8 -8 -8 -8 -8 -9 -9 -9 -9 -9 -9 -9 -9 -9 -9 -9 -8 -8 -8 -8 -8 -8 -8 -8 -7 -7 -7 -7 -6 -4 -4 -4 -5 -5 -5 -5 -5 -6 -7 -7 -7 -7 -7 -7 -7 -7 -7 -7 -7 -7 -6 -5 -5 -4 -4 -4
-9 -9 -9 -9 -9 -8 -8 -8 -8 -8 -8 -8 -8 -8 -8 -8 -8 -8 -9 -9 -9 -9 -8 -8 -9 -9 -9 -9 -8 -8 -8 -8 -8 -8 -8 -8 -8 -7 -7 -7 -7 -6 -4 -4 -5 -5 -5 -5 -6 -6 -6 -7 -7 -7 -7 -8 -8 -8 -7 -7 -7 -7 -7 -6 -6 -5 -5 -5 -5
-9 -9 -9 -9 -8 -8 -8 -8 -8 -8 -8 -8 -8 -8 -8 -8 -8 -9 -9 -9 -9 -8 -8 -8 -8 -9 -8 -8 -8 -8 -8 -8 -8 -8 -8 -8 -8 -7 -7 -7 -7 -6 -4 -5 -5 -5 -5 -6 -6 -6 -7 -7 -7 -7 -7 -8 -8 -8 -8 -8 -7 -7 -7 -7 -6 -6 -5 -5 -5
-9 -9 -9 -8 -8 -8 -8 -8 -8 -8 -8 -8 -8 -8 -8 -8 -8 -9 -9 -9 -9 -8 -8 -8 -8 -8 -8 -8 -8 -8 -8 -8 -8 -8 -8 -8 -8 -7 -7 -7 -7 -6 -5 -5 -5 -5 -6 -6 -6 -6 -7 -7 -7 -7 -7 -8 -8 -8 -8 -7 -7 -7 -7 -7 -7 -6 -5 -5 -5
-8 -8 -8 -8 -8 -8 -8 -8 -8 -8 -8 -8 -8 -8 -8 -8 -8 -8 -9 -9 -9 -8 -8 -8 -8 -9 -8 -8 -8 -8 -8 -8 -8 -8 -8 -8 -8 -7 -7 -7 -7 -6 -5 -5 -5 -5 -6 -6 -6 -6 -7 -7 -7 -7 -7 -7 -7 -7 -7 -7 -7 -7 -7 -7 -7 -6 -6 -5 -5
-8 -8 -8 -8 -8 -8 -8 -8 -8 -8 -8 -8 -8 -8 -8 -8 -8 -8 -9 -9 -9 -8 -8 -8 -8 -8 -8 -8 -8 -8 -8 -8 -8 -8 -8 -8 -7 -7 -7 -7 -7 -6 -5 -5 -5 -5 -6 -6 -6 -7 -7 -7 -7 -7 -7 -7 -7 -7 -7 -7 -7 -7 -7 -7 -7 -7 -6 -6 -5
-8 -8 -8 -8 -8 -8 -8 -8 -8 -8 -8 -8 -8 -8 -8 -8 -8 -8 -9 -9 -9 -8 -8 -8 -8 -8 -8 -8 -8 -8 -8 -8 -8 -8 -8 -8 -7 -7 -7 -7 -7 -6 -6 -5 -5 -5 -5 -6 -6 -7 -7 -7 -7 -7 -8 -8 -8 -8 -7 -8 -7 -7 -7 -7 -7 -7 -7 -6 -6
-8 -8 -8 -8 -8 -8 -8 -8 -8 -8 -8 -8 -8 -8 -8 -8 -8 -8 -9 -9 -8 -8 -8 -8 -8 -8 -8 -8 -8 -8 -8 -8 -8 -8 -8 -8 -8 -7 -7 -7 -7 -6 -6 -5 -5 -5 -5 -6 -6 -7 -7 -7 -7 -8 -8 -8 -8 -8 -8 -8 -8 -8 -8 -7 -7 -7 -7 -7 -6
-8 -8 -8 -8 -8 -8 -8 -8 -8 -8 -8 -8 -8 -8 -8 -8 -8 -8 -8 -9 -8 -8 -8 -8 -8 -8 -8 -8 -8 -8 -8 -8 -8 -8 -8 -8 -8 -7 -7 -7 -7 -7 -6 -5 -5 -5 -5 -6 -6 -7 -7 -7 -7 -8 -8 -8 -9 -9 -9 -8 -8 -8 -8 -8 -8 -7 -7 -7 -7
-8 -8 -8 -8 -8 -8 -8 -8 -8 -8 -8 -8 -8 -8 -8 -8 -8 -8 -8 -9 -8 -8 -8 -8 -8 -8 -8 -8 -7 -7 -7 -7 -8 -8 -8 -8 -8 -7 -7 -7 -7 -7 -6 -5 -5 -5 -5 -6 -6 -7 -7 -7 -7 -8 -8 -9 -9 -9 -9 -9 -9 -9 -8 -8 -8 -8 -8 -7 -7
-8 -8 -8 -8 -8 -8 -8 -8 -8 -8 -8 -8 -8 -8 -8 -8 -8 -8 -8 -8 -8 -8 -8 -8 -8 -8 -8 -7 -7 -7 -7 -7 -7 -7 -7 -8 -7 -7 -7 -7 -7 -7 -6 -6 -5 -5 -5 -6 -6 -6 -7 -7 -7 -8 -8 -8 -9 -9 -9 -9 -9 -9 -9 -9 -9 -9 -8 -8 -8
-8 -8 -8 -8 -8 -8 -8 -8 -8 -9 -9 -8 -8 -8 -8 -8 -8 -8 -8 -8 -8 -8 -8 -8 -8 -8 -8 -7 -7 -7 -7 -7 -7 -7 -7 -7 -7 -7 -7 -7 -7 -7 -6 -6 -5 -5 -5 -5 -6 -6 -7 -7 -7 -8 -8 -8 -9 -9 -9 -9 -10 -9 -9 -9 -9 -9 -9 -9 -8
-8 -8 -8 -8 -8 -8 -8 -8 -9 -9 -9 -8 -8 -8 -8 -8 -8 -8 -8 -8 -8 -8 -8 -8 -8 -8 -7 -7 -7 -7 -7 -7 -7 -7 -7 -7 -7 -7 -7 -7 -7 -7 -7 -6 -6 -5 -5 -5 -6 -6 -7 -7 -7 -8 -8 -8 -8 -9 -9 -9 -10 -10 -9 -9 -9 -9 -9 -9 -9
Height
882 881 880 879 877 876 875 873 872 871 869 867 865 864 862 861 859 857 856 855 853 851 850 848 846 845 842 841 839 838 836 835 833 831 830 828 827 825 824 822 821 819 817 816 815 813 811 810 809 807 806 804 803 801 800 799 797 796 795 794 792 791 790 789 787 786 786 785 784
882 881 880 879 877 876 874 873 871 870 869 867 866 864 862 861 859 858 856 855 853 851 850 848 846 844 842 841 839 838 836 834 832 831 829 827 826 824 823 821 819 818 816 815 813 812 811 809 808 806 805 803 801 800 799 798 796 795 794 792 791 790 789 787 786 785 784 783 782
882 881 879 878 877 875 874 872 871 870 868 867 866 864 863 861 860 858 856 855 853 851 849 847 845 843 842 840 839 837 836 834 832 830 828 827 825 823 822 820 818 817 815 814 812 811 809 808 806 805 803 802 801 799 797 796 796 794 793 791 790 789 788 786 785 784 783 782 781
882 881 879 878 876 875 874 872 871 869 868 866 865 864 862 861 859 858 856 854 852 851 849 847 845 843 842 840 838 837 835 833 831 830 828 826 824 822 821 819 817 816 814 813 811 810 808 807 805 804 802 801 799 798 796 795 794 793 792 791 790 788 787 786 784 783 782 781 780
881 880 879 878 876 875 874 872 871 869 868 866 865 863 862 861 859 857 856 854 852 850 848 846 845 843 842 840 838 836 834 833 831 829 827 825 823 821 820 818 816 815 813 811 810 808 807 806 804 802 801 800 798 797 796 794 793 792 791 790 788 787 786 785 783 782 781 780 778
881 880 879 877 876 875 873 872 870 869 867 866 864 863 861 860 858 857 855 853 851 849 848 846 845 843 841 839 837 836 834 832 830 828 826 825 822 821 819 817 815 813 811 810 808 807 806 804 803 801 800 798 796 795 794 793 792 791 790 788 787 786 785 783 782 781 779 778 777
881 880 878 877 876 874 873 871 870 868 867 865 864 862 861 859 858 856 855 853 851 849 848 846 845 843 841 839 837 835 833 831 829 827 826 824 821 820 818 816 814 812 810 809 807 806 804 803 801 800 798 797 795 794 793 792 791 790 788 787 785 784 783 781 780 779 778 776 775
881 880 878 877 875 874 872 871 869 868 866 865 863 862 861 859 857 856 854 853 851 850 848 846 844 842 841 839 836 835 832 830 828 826 825 822 821 818 816 815 813 811 809 807 806 804 803 801 800 798 797 795 794 792 791 791 790 788 787 785 783 782 781 780 778 777 776 775 774
881 879 878 876 875 873 872 870 869 867 866 865 863 862 860 859 858 856 854 852 851 850 848 846 844 842 840 838 836 834 832 830 827 826 823 821 819 817 815 813 811 810 807 806 804 803 801 800 798 797 796 794 792 791 790 789 788 786 785 783 781 780 779 778 777 776 775 773 772
880 879 877 876 874 873 871 870 868 867 866 865 863 862 861 859 858 856 854 853 851 849 847 846 844 841 840 837 836 833 831 829 827 825 822 820 818 816 814 812 810 808 806 804 803 801 799 798 796 795 794 792 791 789 788 787 786 785 783 782 780 778 777 776 775 774 773 771 770
880 879 877 876 874 873 871 870 868 867 866 865 863 862 860 859 857 856 854 852 851 849 847 845 843 841 839 837 835 833 831 828 826 824 821 819 817 815 813 811 809 807 805 803 801 799 798 796 794 793 792 791 789 788 786 785 784 783 781 780 778 776 775 774 773 772 771 770 768
880 879 878 876 875 873 871 870 868 867 866 865 863 862 860 859 857 856 854 852 850 848 846 845 843 841 839 836 834 832 830 827 825 823 821 819 816 814 811 809 807 805 803 801 799 798 796 794 792 791 789 788 787 786 785 784 783 781 780 778 776 775 773 771 771 771 770 768 767
881 879 878 876 875 873 871 870 869 867 866 865 863 862 860 859 857 855 853 852 850 848 846 844 842 840 838 836 833 831 829 827 825 822 820 817 815 812 810 807 805 803 801 799 797 796 794 792 791 788 787 786 785 784 783 782 781 780 778 776 774 773 771 770 769 768 767 766 766
881 879 878 876 875 873 872 870 869 867 866 865 863 862 860 858 857 855 853 851 850 847 846 843 841 839 837 835 833 831 828 826 824 821 819 816 813 811 808 806 803 801 799 797 795 794 792 791 788 786 785 783 782 782 781 781 779 778 776 775 773 771 770 768 767 766 766 765 765
881 880 878 876 875 873 872 871 869 868 866 865 863 862 860 858 856 855 853 851 849 847 845 843 841 839 836 834 832 830 827 825 823 820 817 814 811 809 806 804 801 799 797 795 793 791 790 788 786 785 783 781 780 779 778 778 777 776 774 773 772 770 769 767 766 765 765 765 764
881 880 878 876 875 874 872 871 869 868 866 865 863 861 860 858 856 854 852 851 848 846 844 842 840 838 836 833 831 829 826 824 821 818 816 812 810 807 804 802 800 797 795 793 791 789 787 786 785 783 781 780 778 776 776 775 774 773 772 771 770 769 768 767 766 765 764 764 764
881 880 878 877 875 874 872 871 870 868 866 865 863 861 859 857 856 854 852 850 848 846 843 841 840 837 835 832 830 828 825 823 820 817 814 811 808 805 802 800 797 795 793 791 789 787 785 784 782 781 780 778 776 775 773 772 771 771 770 769 768 768 767 766 765 764 764 763 763
881 880 878 877 875 874 872 871 870 868 866 865 862 861 859 857 855 853 851 850 847 845 843 841 839 837 834 832 829 827 824 821 819 816 813 810 807 804 801 798 796 793 791 789 787 785 783 781 780 779 777 776 774 773 771 771 770 769 768 768 767 766 766 765 764 764 763 762 762
881 880 878 877 875 874 872 871 870 868 866 864 862 861 859 857 855 853 851 849 847 845 843 841 838 836 834 831 829 826 824 821 818 815 811 808 806 802 799 796 794 791 789 787 785 783 781 780 778 777 775 774 772 771 770 769 768 768 767 766 766 765 765 764 763 763 762 761 761
881 879 878 876 875 874 872 871 869 868 866 864 862 860 858 856 855 852 851 849 847 845 843 841 838 836 833 831 828 825 823 820 817 814 810 807 804 801 798 795 791 789 787 786 783 781 780 778 777 776 774 773 771 770 769 768 767 767 766 766 765 765 764 763 762 761 761 761 761
881 879 878 876 875 874 872 871 870 868 866 864 862 860 858 856 854 852 851 849 847 845 843 841 838 835 832 830 827 825 822 819 816 813 809 806 802 799 796 793 791 788 786 784 781 780 778 777 776 775 774 772 771 771 769 768 768 767 766 766 765 764 763 762 761 761 761 762 762
881 879 878 877 875 874 872 871 870 868 866 864 862 860 858 856 854 852 851 849 847 845 843 841 838 835 833 830 827 825 822 819 816 812 809 806 801 798 795 793 791 788 784 781 780 778 777 777 776 776 775 773 772 771 770 769 768 767 766 766 765 764 763 762 762 762 762 762 763
881 880 878 877 875 874 872 871 869 867 866 863 861 860 858 856 854 852 851 849 847 845 843 841 838 836 833 831 828 825 822 818 815 811 808 805 802 798 795 793 790 787 784 781 779 778 778 778 778 776 775 774 773 772 771 770 769 767 766 765 765 764 764 764 764 763 763 763 763
881 880 878 877 875 874 872 871 869 867 865 863 861 860 858 856 854 852 851 849 847 845 843 841 838 836 833 831 828 825 822 819 815 811 808 805 802 799 796 794 791 787 785 783 782 781 780 780 779 777 776 775 774 773 772 771 770 768 767 766 766 766 766 766 765 765 765 765 764
881 880 878 877 875 874 872 871 869 867 865 863 862 860 858 856 854 852 851 849 847 845 843 841 838 836 834 831 828 826 823 819 816 812 809 806 804 801 798 795 792 790 788 786 784 782 781 780 780 778 777 776 775 774 773 772 771 770 769 768 767 767 767 766 766 766 766 765 765
881 879 878 876 875 874 872 870 869 867 865 864 862 860 858 856 854 852 851 849 847 845 843 841 839 836 834 831 829 826 823 820 817 814 811 808 806 803 801 798 795 793 791 788 786 784 782 781 781 780 779 777 776 775 774 773 772 771 770 770 769 768 768 767 767 767 766 766 765
881 879 878 876 875 873 872 871 869 867 865 864 862 860 858 856 854 852 851 849 847 845 843 841 839 837 835 832 830 827 824 821 818 816 813 811 808 806 804 801 798 796 794 791 789 786 785 783 782 782 781 779 777 776 776 775 774 772 772 771 770 769 769 768 768 768 767 766 766
881 879 878 876 875 873 872 870 869 867 865 864 862 860 858 856 854 852 850 849 847 845 843 841 840 838 836 833 831 828 826 823 820 817 815 812 811 808 806 803 801 798 796 793 791 790 788 786 785 784 782 781 779 778 777 776 776 775 773 773 772 771 770 769 769 768 768 767 766
881 879 878 876 875 873 872 870 869 867 866 864 862 860 858 856 854 852 850 849 847 845 844 842 841 838 836 834 832 829 827 824 822 819 817 814 812 810 808 805 803 801 798 796 794 792 791 789 787 786 784 782 781 780 780 779 778 777 776 775 774 773 771 770 770 769 769 768 767
881 879 878 876 875 873 872 870 869 867 866 864 862 860 858 856 854 852 850 849 847 846 845 843 841 839 837 835 833 830 828 826 823 821 818 816 814 812 809 807 804 802 800 798 796 795 793 791 790 788 787 785 784 783 782 781 780 779 778 777 776 775 773 772 771 770 770 769 768
881 879 878 876 875 873 872 870 869 867 866 864 862 860 858 856 854 853 851 849 848 846 845 844 842 840 838 836 834 831 829 827 825 822 820 818 816 814 811 808 806 804 802 800 798 796 795 794 792 791 789 788 786 785 784 783 782 781 780 779 778 776 775 773 772 771 771 771 770
881 879 878 876 875 873 872 870 869 867 865 864 862 860 858 856 855 853 851 850 848 846 845 843 842 840 838 836 834 832 830 828 826 824 822 820 818 815 813 810 807 805 804 802 800 799 797 796 795 793 792 790 789 787 786 785 784 783 782 781 780 778 777 776 774 773 773 773 773
881 879 878 876 875 873 872 870 868 867 865 863 862 860 858 856 855 853 851 850 848 847 845 844 842 841 839 837 835 833 831 829 827 825 823 821 819 817 814 811 809 807 806 803 801 800 799 798 797 796 794 792 791 789 788 787 786 785 784 783 782 781 779 778 777 776 775 776 775
881 879 878 876 875 873 871 870 868 867 865 863 862 860 858 857 855 853 852 850 849 847 846 844 843 841 840 838 836 834 832 831 828 826 824 822 821 818 816 813 811 809 807 805 803 802 801 800 799 797 796 795 793 791 790 789 788 787 786 785 784 782 781 780 779 778 777 776 776
880 879 878 876 875 873 871 870 868 867 865 863 862 860 859 857 856 854 852 851 849 848 846 845 843 842 840 839 837 835 833 831 829 827 826 824 822 820 817 815 812 811 809 807 805 803 802 801 800 799 798 796 795 793 792 791 790 789 788 786 785 784 783 782 781 779 778 777 777
880 879 877 876 875 873 871 870 868 866 865 863 862 860 859 857 856 854 853 851 850 848 846 845 843 842 840 839 837 836 834 832 830 829 827 825 823 821 819 816 814 811 810 808 806 805 803 802 802 801 799 797 796 795 794 793 792 791 790 789 787 786 785 783 782 781 780 779 778
880 879 877 876 875 873 871 870 868 866 865 863 862 861 859 858 856 855 853 851 850 848 846 845 844 842 841 840 838 837 835 833 831 830 828 826 825 823 821 818 816 813 811 809 807 806 805 804 803 801 800 799 798 797 796 795 794 793 792 791 789 788 787 786 784 783 781 780 780
880 879 877 876 874 873 871 870 868 866 865 863 862 861 859 858 856 855 853 852 850 849 847 846 844 843 842 840 839 837 836 834 833 831 829 827 826 825 822 820 818 815 813 811 810 808 806 805 804 803 801 800 800 799 798 797 796 795 793 792 791 790 789 788 786 785 783 782 781
880 878 877 876 874 873 871 870 868 866 865 864 862 861 859 858 856 855 854 852 851 849 848 846 845 844 842 841 840 838 836 835 833 832 830 828 827 826 824 822 820 817 815 814 812 810 808 807 806 804 803 802 801 801 800 798 797 796 795 793 792 791 790 789 788 787 785 784 783
880 878 877 876 874 873 871 870 868 866 865 864 862 861 859 858 857 855 854 852 851 850 848 847 846 844 843 841 840 839 837 836 834 833 831 830 828 827 825 823 821 819 817 816 814 812 811 809 807 806 805 803 803 802 801 800 799 797 796 794 793 792 791 790 789 788 787 786 784
879 878 876 875 874 873 871 869 868 866 865 864 862 861 860 858 857 855 854 852 851 850 848 847 846 845 843 842 841 839 838 836 835 833 832 831 829 828 826 824 823 821 819 817 816 814 812 811 809 807 806 805 804 804 803 801 800 798 797 796 795 794 792 791 790 789 788 787 786
Wind_Speed
25 25 24 23 21 21 21 20 19 19 20 20 19 19 19 19 18 18 19 19 19 19 20 20 20 22 24 25 26 26 26 26 27 26 26 26 25 25 26 25 25 25 25 25 26 25 25 24 23 22 22 21 21 21 21 20 20 21 21 21 21 21 22 22 22 22 22 21 21
25 25 25 25 24 24 23 21 21 21 22 21 19 19 19 19 18 19 19 19 19 20 21 21 22 23 24 25 25 25 26 27 27 27 26 26 26 26 26 26 25 25 25 25 25 25 24 24 23 22 22 21 21 21 21 20 20 21 21 22 21 21 21 20 20 21 21 20 20
25 26 26 26 26 26 25 24 23 24 25 22 20 19 19 19 19 19 19 20 20 21 21 22 23 23 23 24 25 26 26 26 26 26 26 26 26 26 26 26 26 26 25 25 25 25 25 25 24 22 21 21 21 21 21 21 21 21 21 21 21 21 20 20 20 20 20 19 19
26 26 26 26 27 27 26 25 25 26 25 22 20 20 20 20 19 19 20 21 22 22 22 23 23 23 23 24 26 27 27 26 25 25 25 26 26 26 26 26 26 26 26 25 25 25 25 25 23 22 21 21 22 21 20 20 21 21 21 20 20 20 20 20 20 20 19 19 19
26 26 26 26 27 26 26 26 26 26 24 22 21 21 21 21 21 21 21 22 22 23 23 24 23 23 24 25 27 27 27 26 25 25 25 26 26 26 26 27 26 26 26 26 26 25 24 24 23 22 22 22 21 20 20 20 21 21 21 21 21 21 21 21 20 20 20 20 20
26 26 26 26 26 26 26 26 25 25 24 23 23 23 24 23 23 23 23 23 23 24 24 23 23 24 25 26 27 27 26 26 26 25 25 26 26 27 27 27 27 27 27 26 26 25 24 24 23 22 22 21 21 20 20 20 20 21 22 22 22 21 21 22 22 21 21 21 22
25 26 26 26 26 26 26 25 25 24 23 23 23 24 25 25 24 24 24 24 23 23 23 23 23 25 26 26 26 26 26 26 26 26 26 26 27 27 27 27 28 28 27 27 26 25 25 24 23 23 22 21 20 20 20 20 20 22 23 24 24 23 22 23 23 22 22 23 24
25 25 26 26 26 26 25 25 24 24 23 23 24 25 25 25 24 24 24 24 23 22 23 23 24 25 26 26 26 26 26 26 26 27 27 27 27 28 28 28 28 28 28 27 26 26 25 24 23 22 22 21 20 20 20 21 22 23 25 25 26 25 24 24 24 23 23 24 25
25 26 26 26 26 25 25 25 24 23 22 23 24 25 25 24 23 23 24 22 22 23 23 24 25 25 26 26 26 26 26 27 27 28 28 28 28 28 28 28 28 29 29 28 27 27 26 25 23 22 21 20 20 21 23 24 24 25 25 26 25 25 25 25 25 25 25 25 26
26 26 26 26 26 25 24 24 23 22 22 22 24 24 24 22 23 23 23 22 23 24 24 24 25 25 26 26 27 27 27 27 28 29 29 29 29 29 29 29 29 29 29 29 28 28 27 25 24 23 22 22 23 24 25 25 25 25 25 25 26 26 27 27 26 26 26 26 26
25 26 26 25 25 25 24 24 22 21 21 22 23 24 23 23 23 23 22 22 24 24 25 25 25 26 26 27 27 28 28 28 29 29 30 30 30 30 30 30 29 29 29 30 29 28 27 25 24 24 24 24 25 25 25 25 24 25 26 27 28 28 28 28 27 26 25 25 25
25 25 25 25 24 24 23 23 21 20 21 22 23 23 23 23 23 22 22 23 24 25 25 25 26 27 27 27 28 29 29 30 30 30 30 30 31 31 31 31 30 30 30 31 31 29 27 26 26 27 27 26 25 24 24 24 25 25 26 28 29 29 29 29 28 26 25 25 24
24 25 25 24 24 23 22 22 21 20 21 22 23 23 23 22 22 22 23 24 24 25 26 27 27 27 28 28 29 30 30 30 31 30 30 31 31 32 31 31 31 31 31 32 32 30 29 28 28 29 28 28 26 25 24 24 25 25 26 27 28 29 30 30 30 28 26 24 22
23 24 24 23 23 22 22 21 20 20 21 23 23 23 22 22 23 23 23 24 25 26 27 28 28 28 29 29 30 30 30 31 31 31 31 31 32 32 32 31 31 32 32 32 32 31 30 30 30 30 29 28 27 26 25 25 25 25 25 26 28 29 31 31 30 28 26 23 19
23 23 23 23 22 22 22 21 21 21 22 23 23 23 23 23 23 24 25 26 27 28 28 29 30 30 31 31 31 31 31 31 31 31 32 32 33 33 33 32 32 33 33 33 32 31 31 30 30 29 29 29 28 28 27 26 25 25 26 27 28 29 30 31 29 26 23 20 17
23 23 23 22 22 22 22 21 21 21 22 23 23 24 24 24 25 26 27 28 28 29 30 31 31 31 32 32 32 31 31 31 32 32 32 32 33 33 33 33 32 32 32 32 32 31 31 30 29 29 29 28 29 29 28 28 27 27 28 28 29 29 29 28 25 23 21 18 16
22 23 23 23 23 23 23 22 22 22 23 24 25 25 25 26 27 28 28 29 29 30 31 32 32 32 32 32 32 32 32 32 32 32 33 33 34 34 34 33 32 32 32 31 31 31 31 31 30 29 29 29 29 29 30 30 30 30 30 30 29 27 25 22 20 19 18 17 14
22 23 23 23 24 24 23 23 23 23 24 25 26 26 27 28 29 29 30 30 31 31 32 33 33 33 33 33 33 32 32 32 33 34 34 35 34 34 34 34 33 32 32 31 30 31 31 31 31 30 30 30 30 31 31 31 31 30 29 28 25 22 19 17 15 15 15 14 12
23 23 24 24 24 24 24 23 23 24 25 26 26 27 28 29 30 30 31 32 32 32 33 34 34 34 33 33 33 33 33 33 34 34 35 35 34 34 35 34 34 33 32 31 31 31 31 31 31 31 31 30 30 30 29 28 27 25 23 21 19 16 14 13 13 12 11 9 8
24 24 24 24 24 24 24 24 24 24 25 26 27 28 29 30 31 31 32 33 33 33 34 34 34 34 34 33 34 34 34 34 34 34 35 35 35 35 34 35 34 34 33 32 32 31 31 31 30 28 28 27 26 25 23 21 19 17 16 14 13 12 11 10 10 8 7 7 8
24 25 25 25 24 24 24 24 24 24 25 25 27 28 29 30 31 32 32 33 34 34 34 35 34 34 34 33 34 34 34 34 34 35 35 36 36 35 35 35 34 34 34 32 31 30 29 28 25 23 22 21 20 19 17 16 14 13 12 11 10 9 8 8 8 9 11 13 13
25 25 25 24 24 24 24 24 24 24 24 25 27 28 29 31 32 32 33 33 34 34 34 34 33 33 33 33 33 34 35 35 36 36 36 37 38 38 37 35 34 34 34 32 29 26 23 19 18 18 18 18 19 19 19 18 17 15 14 14 13 12 12 13 15 17 17 16 15
25 25 25 24 24 24 24 24 23 23 24 25 27 29 30 31 32 33 33 34 34 34 34 33 32 32 32 32 33 34 35 36 37 38 38 39 40 40 39 37 36 35 33 29 24 19 16 16 19 21 22 22 22 22 22 22 21 20 20 19 18 18 18 19 21 20 19 17 15
25 25 24 24 24 24 24 23 23 23 24 25 27 29 30 32 32 33 33 33 33 33 33 32 31 31 31 31 32 33 35 36 37 39 40 41 41 41 41 40 39 36 31 26 23 20 20 21 23 25 25 25 24 23 23 23 23 24 24 24 22 20 19 19 19 19 19 18 17
25 25 24 23 23 23 23 23 23 23 24 26 27 29 31 32 32 33 33 33 33 33 32 31 30 30 30 31 32 33 34 36 37 38 40 41 42 42 42 41 40 36 30 28 28 26 24 24 25 27 27 26 24 24 24 24 26 28 28 26 23 20 18 17 17 17 18 18 18
24 24 24 24 23 23 23 23 23 23 24 26 28 30 31 32 32 32 33 32 32 32 31 29 29 29 29 30 31 33 34 35 36 37 39 40 40 41 41 40 38 33 30 31 32 30 29 27 27 27 28 27 26 25 25 26 28 30 30 28 26 23 20 17 15 15 15 17 19
24 24 24 23 23 23 23 23 23 24 25 27 28 30 31 31 32 32 32 32 31 31 29 28 28 28 28 29 31 32 34 34 35 36 37 38 38 38 38 38 36 32 31 32 32 32 31 30 29 28 28 28 28 28 28 29 29 31 31 30 28 26 22 19 16 15 15 16 19
24 24 23 23 23 23 23 23 24 24 26 27 28 29 30 31 32 32 32 32 31 30 28 28 28 28 28 29 30 31 33 34 34 35 36 38 37 36 36 36 35 31 31 32 32 31 31 31 30 29 29 29 30 31 31 30 29 30 30 29 29 27 25 23 21 20 19 18 18
24 23 23 23 23 23 23 24 24 25 26 27 28 29 30 31 31 32 32 31 30 29 27 27 28 28 29 29 30 31 32 33 33 34 35 37 36 36 36 35 34 32 32 33 33 32 31 30 30 30 30 30 31 31 31 30 28 28 28 29 29 29 28 27 26 25 24 23 21
23 23 22 22 22 23 23 24 25 26 26 27 28 29 30 30 31 31 31 30 29 28 27 27 28 29 29 29 29 30 31 32 32 33 34 36 35 35 36 35 34 33 33 33 34 33 32 30 30 30 30 30 30 30 30 29 27 27 27 28 30 31 31 30 30 29 29 28 27
23 22 22 22 22 23 24 25 26 26 27 27 28 29 29 30 30 30 30 29 28 27 27 28 29 29 29 29 29 29 30 31 32 32 33 34 34 35 36 36 35 34 34 33 34 34 33 32 31 30 30 30 30 30 30 29 28 27 28 30 31 33 33 32 32 31 30 29 30
22 22 22 22 23 24 24 25 26 26 27 28 28 28 29 29 29 29 29 28 27 27 28 28 29 29 29 29 29 29 29 30 30 31 31 32 33 34 35 35 35 34 34 33 33 34 34 33 32 31 30 29 30 30 30 29 29 29 30 31 32 34 34 34 34 32 29 27 29
22 22 22 22 23 24 25 26 26 27 27 27 27 28 28 28 29 29 28 27 26 27 27 27 28 28 28 28 28 28 28 29 29 30 31 31 32 34 35 35 35 35 34 33 32 33 34 34 33 32 31 31 31 31 30 29 29 29 30 30 31 32 33 34 34 33 30 26 26
22 22 22 22 23 24 25 26 26 26 27 27 27 27 27 28 28 28 28 26 26 26 26 26 27 27 27 27 26 27 27 28 28 29 30 31 31 33 34 35 35 34 33 33 32 32 33 33 33 33 32 31 31 31 30 29 28 28 29 29 30 31 32 33 33 33 32 28 26
22 22 22 22 23 24 25 25 26 26 26 26 27 27 27 27 27 27 27 26 25 25 25 25 26 26 25 25 25 25 26 27 28 28 29 29 30 32 34 34 35 34 34 35 33 31 31 32 33 33 34 33 32 30 29 28 27 27 28 28 28 29 30 31 32 32 32 31 28
21 21 22 22 23 24 24 25 25 26 26 26 26 26 26 26 26 26 26 25 25 25 24 24 25 25 24 24 24 24 25 26 26 27 27 28 29 31 33 33 34 34 35 37 34 31 30 31 32 33 35 36 34 31 28 26 25 25 26 26 27 28 29 29 30 30 31 31 30
21 21 21 22 23 24 24 24 25 25 26 26 25 25 25 25 25 26 25 25 25 24 23 23 23 23 23 23 23 23 23 24 25 26 26 27 27 29 31 32 33 34 35 36 36 33 30 30 31 33 35 36 35 31 28 25 24 24 24 25 25 26 26 27 27 28 29 28 28
21 21 21 21 23 24 24 24 24 25 25 25 24 23 23 24 24 25 25 24 24 23 22 22 22 22 21 21 21 21 21 22 23 24 25 26 26 27 29 31 32 33 33 34 35 33 31 29 29 31 33 35 34 31 28 26 24 24 23 23 23 23 24 25 25 26 27 27 26
21 21 21 21 23 23 24 23 23 24 24 23 22 22 22 23 24 24 24 23 22 21 20 20 20 20 19 19 19 19 20 21 22 23 24 24 24 25 27 29 30 31 31 32 33 33 31 28 27 29 31 33 33 31 29 27 25 24 24 23 22 22 22 22 23 24 26 26 25
21 21 21 22 22 23 23 23 23 23 22 22 21 21 21 22 23 23 23 22 20 19 18 18 18 18 18 17 17 18 18 19 20 21 22 23 24 24 26 28 29 29 30 30 31 32 31 29 26 26 28 31 32 31 29 28 27 26 25 24 23 22 21 21 21 22 24 25 25
21 22 22 22 22 23 23 23 23 22 21 19 19 19 20 22 23 23 22 21 19 18 17 17 17 16 16 16 16 16 17 18 19 20 21 22 23 24 25 26 27 28 28 28 29 30 30 30 27 25 25 28 29 29 29 29 28 27 26 25 24 23 21 21 21 21 22 23 24
Wind_Direction
4 2 360 356 352 348 346 344 342 341 339 337 335 334 334 333 331 331 331 330 329 328 327 325 323 322 322 324 326 326 325 325 324 324 323 322 321 320 319 319 318 317 316 315 315 315 314 313 313 311 310 308 306 303 302 301 301 300 300 299 298 297 296 295 294 294 293 292 291
1 0 359 356 353 350 347 344 342 341 340 339 337 335 335 334 332 331 330 330 328 326 325 325 323 322 322 324 326 326 325 324 324 324 324 323 322 322 321 320 319 317 316 316 315 314 313 313 312 311 310 308 306 304 303 302 302 301 301 301 300 299 298 297 296 295 295 293 291
359 358 357 355 353 351 348 345 342 341 341 339 337 335 335 334 332 330 328 327 326 325 324 323 322 322 323 324 325 325 325 324 324 324 324 324 323 323 322 320 319 318 316 315 314 313 313 312 311 310 309 307 306 304 303 303 304 303 303 303 303 303 301 300 298 297 296 294 291
358 357 355 353 352 351 348 344 342 342 342 339 337 335 335 333 331 329 327 327 326 324 323 322 322 323 325 325 326 326 326 325 325 325 325 325 324 323 322 321 320 318 317 315 314 313 312 312 311 310 308 307 305 303 302 303 305 305 305 304 304 303 301 300 299 297 295 294 292
357 356 355 353 352 350 348 346 345 343 342 339 337 336 335 334 332 330 328 328 326 325 324 325 325 326 327 327 327 327 327 327 327 326 326 325 324 323 322 321 320 319 317 316 315 314 313 312 311 309 307 306 303 302 302 302 303 304 303 303 302 301 300 298 297 296 294 293 291
355 355 355 354 352 351 349 348 347 345 344 341 340 339 338 336 334 331 329 328 326 327 328 329 329 329 329 329 329 328 328 328 328 327 326 325 324 323 323 322 320 319 318 316 316 314 313 313 311 309 307 305 303 301 300 301 302 302 302 301 300 299 297 296 295 294 293 292 290
356 355 354 353 352 351 350 349 349 348 346 344 343 342 341 340 337 334 332 331 330 332 333 333 332 331 330 330 330 329 328 327 327 327 326 324 323 322 322 321 320 319 318 317 315 315 314 313 310 308 306 305 303 301 300 301 301 301 300 299 299 297 295 294 293 293 292 291 290
357 356 355 354 353 352 351 351 350 349 348 347 345 345 344 342 339 337 336 335 335 335 335 334 332 332 331 330 329 328 327 326 326 325 324 321 321 321 320 320 319 319 318 317 315 314 313 311 309 307 305 303 302 300 300 301 301 300 299 298 298 297 295 294 293 292 292 291 290
358 357 356 355 354 353 352 352 352 351 350 349 348 347 346 343 340 339 338 337 337 336 335 334 333 332 332 331 329 328 327 326 324 323 323 320 320 319 319 319 318 318 317 316 315 314 312 310 308 306 304 301 300 300 300 301 301 300 299 298 297 297 296 295 293 293 292 291 290
358 357 357 356 355 355 354 354 354 353 352 350 349 348 346 343 342 341 339 337 336 336 336 334 334 333 332 330 329 327 326 324 323 322 321 320 320 319 318 318 317 316 316 315 314 313 312 310 308 306 303 301 299 299 300 301 301 300 300 298 297 296 296 296 296 295 294 293 291
359 358 358 357 356 356 355 355 354 353 352 350 349 348 347 345 343 341 339 337 337 336 335 334 333 333 331 330 329 327 326 324 322 321 320 320 320 318 317 316 316 314 313 312 312 312 312 310 308 305 303 301 301 300 300 301 301 300 299 298 297 296 296 298 298 298 297 296 293
360 359 359 358 357 357 357 356 354 353 352 350 349 348 347 345 343 341 339 338 337 336 334 333 333 332 330 329 328 327 326 325 323 321 320 320 319 317 316 315 314 312 311 311 312 312 311 309 307 306 304 303 302 301 300 301 300 299 298 298 298 297 297 298 300 301 301 300 297
0 360 360 360 359 358 357 357 355 353 352 351 350 348 346 344 343 341 339 338 336 334 333 334 333 332 330 328 328 327 326 326 325 323 322 320 319 317 315 314 312 311 311 311 312 312 310 309 308 306 305 304 303 301 300 300 299 298 297 297 298 299 299 301 303 305 306 306 301
1 1 1 360 359 358 358 357 356 354 352 351 349 347 345 343 343 341 339 337 335 334 333 333 333 333 331 330 329 328 327 326 326 325 324 321 319 317 315 313 312 312 312 312 313 312 311 309 308 307 306 305 303 302 301 300 298 296 295 295 296 299 301 304 306 309 310 309 307
2 2 1 0 359 358 358 357 355 354 352 350 348 346 345 342 341 340 338 337 336 335 334 334 334 334 334 333 331 330 329 328 327 326 324 322 320 318 316 314 314 313 313 314 314 314 312 310 309 308 306 305 305 304 303 301 298 296 295 295 296 298 301 304 309 311 311 310 311
2 2 1 0 359 359 358 357 355 353 350 348 346 345 343 341 340 339 339 338 338 337 337 337 336 336 335 335 334 333 331 330 329 327 325 323 322 320 318 317 315 315 315 314 314 314 314 313 311 309 307 306 305 305 304 302 300 298 297 297 298 299 301 305 309 310 309 308 309
2 1 1 360 359 358 357 355 353 350 349 347 346 344 342 341 341 341 340 340 340 339 339 340 339 338 337 336 336 335 333 330 329 327 326 325 324 322 320 319 318 317 316 314 314 313 313 314 313 310 308 306 305 305 304 303 301 300 300 300 301 302 304 307 308 308 306 306 305
1 1 360 359 358 357 355 353 351 349 348 347 345 344 343 343 343 344 344 344 343 342 341 341 341 340 338 337 336 335 333 331 329 329 328 326 325 324 322 321 320 319 317 315 314 312 311 311 312 311 310 308 306 305 304 303 302 302 302 303 305 307 309 309 306 304 302 303 305
1 0 359 358 357 355 353 352 350 349 348 347 345 345 345 346 346 346 347 348 347 345 344 343 342 342 340 339 338 337 335 333 332 330 329 328 327 325 325 323 322 320 318 316 314 312 311 311 312 312 312 310 309 308 308 307 306 306 307 309 311 312 312 307 301 299 301 309 326
1 360 358 356 355 353 352 351 350 349 348 347 347 347 347 348 349 349 349 349 348 347 346 345 344 343 342 341 339 338 337 335 334 332 331 330 328 326 325 323 322 321 319 317 315 313 313 314 316 317 317 317 318 318 320 321 321 321 322 323 322 319 314 308 307 316 337 11 35
1 360 358 356 354 352 351 351 351 349 348 348 348 348 349 350 350 351 350 350 349 349 348 348 346 344 343 342 340 339 338 337 336 334 333 332 329 327 325 324 324 324 323 321 319 318 320 322 326 329 333 336 340 345 349 352 353 353 352 351 348 344 343 348 4 26 46 58 61
2 0 359 356 354 353 352 352 352 351 349 348 349 350 350 351 351 351 351 351 351 351 350 349 347 345 344 342 341 340 341 341 340 339 338 336 334 332 332 332 333 333 331 329 329 331 336 344 353 1 7 12 16 19 21 21 21 22 22 22 23 28 38 48 56 62 66 67 61
2 1 359 357 356 355 355 355 354 352 350 349 350 350 351 351 352 352 352 352 352 352 352 350 348 346 345 344 343 343 344 344 344 344 344 343 341 341 342 344 344 343 342 343 347 358 15 28 31 32 33 33 32 31 29 28 28 28 29 32 38 47 58 66 69 69 67 63 56
3 2 1 358 358 357 357 356 354 353 351 351 351 351 351 351 352 352 352 353 354 354 353 351 350 348 346 346 346 347 348 348 347 347 348 348 348 349 350 352 352 352 355 4 17 36 51 52 44 39 37 36 33 30 28 26 26 28 31 35 41 49 59 67 70 67 63 59 55
4 4 3 0 359 359 358 357 355 353 351 351 351 352 352 352 351 351 352 353 354 354 353 352 351 350 348 348 349 351 352 351 350 350 350 351 353 355 355 355 355 358 6 17 27 38 47 49 43 38 35 34 31 28 26 27 28 31 33 36 37 40 46 56 64 65 62 58 54
5 5 4 2 1 360 359 357 355 353 352 351 352 352 352 352 351 352 352 353 354 354 353 353 352 351 350 350 352 354 355 355 354 353 353 353 355 357 357 355 355 2 14 21 24 28 34 39 40 37 34 32 31 29 27 28 29 31 32 32 31 30 32 39 50 58 59 57 53
6 5 4 3 2 1 360 358 355 353 352 352 352 352 352 352 352 352 353 353 354 354 354 353 353 352 353 353 354 356 357 357 357 356 356 356 356 357 356 354 355 6 20 25 25 25 28 32 35 35 34 33 32 31 29 29 29 29 29 27 25 23 24 28 37 46 53 55 54
5 4 3 2 1 360 359 357 355 354 353 352 352 352 352 353 353 353 353 353 354 354 354 354 354 354 355 356 357 358 359 359 358 358 358 358 358 357 356 355 358 11 25 29 28 27 27 28 30 32 33 33 33 32 30 29 27 26 25 23 22 21 22 25 31 38 44 48 51
5 4 2 1 359 358 357 356 355 354 353 352 353 353 354 354 354 354 354 354 354 354 354 353 354 355 356 357 358 359 0 1 0 359 359 360 359 359 358 358 2 15 29 33 32 30 30 29 30 31 32 33 34 32 30 27 25 23 23 22 22 22 24 27 31 34 36 38 40
5 3 1 360 358 357 356 355 354 354 353 353 354 355 355 355 355 355 354 354 354 353 353 353 354 356 357 359 0 1 1 2 2 2 1 0 359 360 0 0 3 16 30 35 35 34 33 32 31 31 32 33 33 31 28 25 23 23 23 23 24 25 26 28 31 33 34 33 33
4 2 0 359 357 356 356 355 354 354 354 355 355 356 356 356 355 355 355 354 353 353 353 355 356 357 359 1 3 3 3 3 4 3 2 1 0 1 2 2 3 15 29 36 36 36 35 34 33 32 32 32 32 30 27 24 23 24 24 25 25 26 27 28 30 32 33 33 32
3 1 359 358 356 356 355 355 355 355 355 356 357 357 357 356 356 356 356 355 353 353 354 355 356 357 360 2 4 5 4 5 5 4 3 2 2 3 4 4 2 11 24 35 38 37 36 36 35 33 33 32 32 30 28 25 24 25 25 25 25 26 27 28 30 31 32 33 34
1 360 358 357 355 354 355 355 355 356 356 357 358 358 358 357 357 357 357 355 353 353 354 355 356 357 359 1 3 4 4 5 6 5 5 4 4 5 6 5 2 6 17 31 38 39 37 36 35 34 33 33 33 32 29 27 25 25 25 25 25 25 26 27 28 28 29 31 33
360 359 358 356 354 354 354 355 356 356 357 357 358 358 358 358 357 357 356 354 353 353 354 356 357 358 360 2 4 4 5 6 7 8 8 7 6 7 7 7 4 3 11 27 38 40 38 37 35 34 33 33 33 32 30 28 26 25 24 23 23 24 24 25 26 26 25 25 27
359 358 357 355 354 354 354 355 356 356 357 357 357 358 359 358 358 357 356 353 352 354 356 357 358 359 1 4 7 7 7 8 9 10 9 8 8 8 8 9 6 4 8 22 34 39 38 38 36 34 32 32 32 31 29 28 26 25 24 23 22 21 22 23 24 25 24 22 21
358 356 355 354 354 354 354 355 355 356 356 356 356 357 358 358 358 357 356 354 354 355 357 358 359 360 1 3 6 8 9 9 10 10 10 9 8 8 9 10 9 5 6 17 28 35 37 37 36 33 31 30 30 29 28 26 25 24 24 23 22 21 20 20 21 23 24 22 18
357 356 354 353 353 353 354 354 354 354 354 354 355 356 357 357 357 357 357 355 355 356 357 358 359 359 359 1 4 8 11 12 12 12 11 11 9 8 9 11 11 7 6 12 21 30 35 36 34 32 30 29 29 28 26 25 24 23 23 23 22 21 19 18 19 20 22 20 16
356 355 354 352 352 352 353 353 354 353 353 353 355 357 358 358 356 356 356 356 356 356 356 358 359 359 358 360 4 9 13 16 15 14 13 12 11 9 9 11 12 8 6 9 16 24 31 34 34 32 29 28 28 27 26 24 23 22 21 21 20 20 19 17 16 17 18 18 14
355 354 352 351 351 351 352 353 353 352 352 352 355 358 359 358 356 356 357 358 359 358 358 358 359 358 357 359 3 9 14 17 18 17 15 13 13 11 11 13 12 10 8 9 13 20 26 32 35 33 29 27 27 27 26 24 23 22 21 20 18 18 17 16 14 13 14 15 13
354 353 352 351 351 352 352 352 352 351 351 353 356 359 359 358 357 357 359 1 2 1 360 359 359 358 357 359 3 8 13 16 18 18 17 16 15 14 14 15 13 11 9 9 12 16 22 28 33 34 31 27 26 26 26 25 24 23 23 21 18 16 14 14 12 11 10 11 12
354 353 352 352 353 353 353 352 351 351 352 355 359 1 0 359 359 0 2 3 3 3 2 1 360 359 359 360 3 7 10 14 16 17 17 17 17 18 18 17 14 12 10 9 10 13 18 23 29 34 34 30 27 26 26 25 25 25 24 22 20 17 13 12 10 10 9 8 8